Location: Chambares
(44.0040°N, 6.3797°E)
Time: 11:08:31
(UTC+00:00)

Daily predictions for brighter satellites

Satellite Brightness Start Highest point End
(mag) Time Altitude Azimuth Time Altitude Azimuth Time Altitude Azimuth
Cosmos 1802 Rocket 4.2 19:16:44 10° SSE 19:22:42 54° E 19:28:39 10° NNE
Cosmos 292 Rocket 4.3 19:19:09 10° NNW 19:23:50 59° WSW 19:28:27 10° S
Cosmos 44 Rocket 4.2 19:18:56 10° SW 19:23:55 60° NW 19:29:04 10° NNE
Helios 1A Rocket 2.8 19:22:56 10° NNE 19:25:52 36° E 19:28:47 10° SSE
PAYLOAD B 4.4 19:21:59 10° SSE 19:27:22 59° ENE 19:32:49 10° N
Cosmos 1697 Rocket 3.7 19:23:52 10° NW 19:29:13 46° WSW 19:34:31 10° S
NOSS 3-3 (C) 4.0 19:24:44 10° S 19:29:25 40° ESE 19:34:51 10° NE
Meteor 1-31 Rocket 2.5 19:28:51 10° SSE 19:32:18 88° W 19:35:47 10° NNW
Cosmos 1455 Rocket 3.1 19:30:23 10° S 19:34:42 60° E 19:39:02 10° NNE
USA 215 4.3 19:29:19 10° SSE 19:35:17 38° SW 19:41:18 10° WNW
USA 306 4.4 19:32:13 10° W 19:35:21 27° NNW 19:37:45 10° NNE
DELTA 2 R/B (1) 3.8 19:31:45 10° WSW 19:37:08 52° S 19:42:32 10° E
Cosmos 1892 Rocket 3.6 19:33:24 10° N 19:37:40 58° E 19:41:54 10° SSE
Okean O Rocket 2.8 19:34:14 10° SE 19:37:50 27° ENE 19:41:27 10° N
Cosmos 2100 Rocket 4.2 19:32:47 10° SSW 19:39:01 79° W 19:45:23 10° N
Cosmos 1850 Rocket 4.3 19:33:53 10° NNW 19:39:03 71° WSW 19:44:11 10° S
Meteor 1-27 4.2 19:34:56 10° S 19:40:30 65° E 19:46:03 10° NNE
Cosmos 2228 3.3 19:37:06 10° SSE 19:40:58 42° E 19:44:51 10° NNE
SPOT 5 3.7 19:37:29 10° S 19:41:36 45° W 19:45:51 10° NNW
USA 186 3.4 19:40:57 11° ESE 19:42:30 15° ENE 19:44:11 10° NNE
IRAS Rocket 4.3 19:37:11 10° SSE 19:42:40 84° WSW 19:48:12 10° NNW
SL-16 R/B 3.5 19:39:35 10° N 19:44:20 27° NE 19:49:03 10° ESE
SL-24 R/B 4.3 19:40:22 10° NNE 19:44:42 85° WNW 19:49:34 10° SSW
Okean 1 Rocket 4.1 19:42:51 10° SSW 19:47:07 49° WNW 19:51:26 10° N
CBERS 1 LM4 rocket 4.5 19:42:40 10° SSE 19:47:37 75° ENE 19:52:47 10° N
Cosmos 2233 Rocket 4.1 19:43:34 10° SSE 19:49:34 55° E 19:55:33 10° NNE
Cosmos 2084 Rocket 3.4 19:47:50 10° NW 19:52:03 75° NE 19:55:38 14° SE
COSMOS 2406 3.6 19:51:19 10° S 19:56:42 43° ESE 20:02:06 10° NE
Cosmos 1782 2.4 19:54:52 10° S 19:58:22 88° E 20:01:55 10° N
Okean-O 3.1 19:55:01 13° SE 19:58:32 42° ENE 20:02:41 10° N
SKYMED 3 4.2 19:54:51 10° NNE 19:58:49 75° ESE 20:02:46 10° S
CZ-4 R/B 2.3 19:55:30 10° S 19:58:55 41° W 20:02:23 10° NNW
MetOp-B 4.2 19:53:44 10° SSE 19:59:05 89° W 20:04:29 10° NNW
Cosmos 1980 Rocket 2.7 19:54:37 10° NNW 20:00:12 59° WSW 20:05:45 10° S
Ariane Rocket 4.5 19:58:02 12° ESE 20:01:22 22° ENE 20:05:10 10° NNE
Spot 2 Rocket 3.6 20:02:06 13° SSE 20:06:27 60° ENE 20:11:24 10° N
Cosmos 1758 Rocket 4.3 20:03:51 10° N 20:07:56 36° ENE 20:10:37 18° SE
Cosmos 1725 Rocket 4.2 20:01:59 10° SSW 20:08:15 76° W 20:14:30 10° N
Cosmos 2333 Rocket 3.1 20:07:04 10° NNW 20:12:21 37° NE 20:16:16 17° ESE
ERS-1 Rocket 3.5 20:07:36 10° S 20:12:30 57° W 20:17:27 10° NNW
ATLAS 3B R/B 4.2 20:06:20 10° NW 20:13:03 35° WSW 20:19:23 10° S
USA 305 4.1 20:16:12 10° WNW 20:19:37 27° SW 20:21:49 15° S
Tsikada Rocket 3.9 20:13:42 10° N 20:19:54 86° E 20:25:37 12° S
Cosmos 2016 Rocket 4.4 20:16:41 10° SSW 20:22:52 64° W 20:29:02 10° N
Cosmos 1461 2.4 20:21:08 10° SSW 20:24:49 67° ESE 20:28:28 10° NE
CZ-4B R/B 3.8 20:20:01 10° S 20:25:33 58° W 20:31:06 10° NNW
Cosmos 2360 Rocket 3.5 20:21:16 10° N 20:26:10 29° NE 20:29:39 16° ESE
CZ-4B R/B 4.2 20:25:36 21° ESE 20:28:08 36° ENE 20:32:32 10° N
CZ-4C R/B 4.5 20:25:38 10° W 20:29:12 22° NNW 20:33:31 10° NNE
Cosmos 1992 Rocket 4.1 20:24:07 10° SSW 20:29:19 80° WNW 20:34:33 10° NNE
Cosmos 1602 Rocket 4.3 20:28:08 10° N 20:32:08 36° ENE 20:33:49 26° ESE
YAOGAN 11 4.1 20:31:05 10° NNE 20:35:33 87° WNW 20:40:01 10° SSW
ISS -1.3 20:34:01 10° WNW 20:36:43 22° N 20:39:25 10° NE
Cosmos 220 Rocket 4.0 20:36:01 26° SSE 20:37:58 48° ESE 20:41:55 10° NNE
Cosmos 1437 Rocket 2.5 20:36:40 30° SSE 20:38:15 62° E 20:41:48 10° NNE
USA 290 4.3 20:39:46 14° ENE 20:39:46 14° ENE 20:40:39 10° NE
Cosmos 2219 Rocket 3.7 20:34:56 10° N 20:39:29 24° NE 20:42:48 15° E
Meteor 1-25 Rocket 4.5 20:35:20 10° N 20:40:52 52° ENE 20:43:46 27° SE
SL-08 R/B 4.3 20:41:10 10° N 20:45:47 47° WNW 20:50:17 10° SW
Cosmos 2098 Rocket 3.7 20:44:22 30° SE 20:46:06 42° E 20:50:11 10° NNE
DEBRIS 4.3 20:43:33 10° WNW 20:46:40 49° N 20:55:46 10° ENE
Cosmos 1626 Rocket 3.6 20:44:11 10° NNW 20:48:34 76° W 20:51:00 26° S
Terra 3.6 20:46:20 10° SSW 20:50:16 27° W 20:54:14 10° NW
Cosmos 1513 Rocket 4.4 20:51:10 19° S 20:55:43 75° E 21:01:51 10° NNE
IRS-1C Rocket 4.2 20:53:40 31° SE 20:56:11 65° ENE 21:01:25 10° N
Cosmos 2151 2.8 20:52:26 10° N 20:56:33 85° W 20:58:09 36° S
Cosmos 1464 Rocket 4.2 20:53:50 28° SSE 20:56:55 52° E 21:02:53 10° NNE
Cosmos 2322 Rocket 2.6 20:52:41 10° NNW 20:58:13 51° ENE 21:00:46 30° ESE
Cosmos 1486 Rocket 4.3 20:53:14 10° NNW 20:58:26 56° ENE 21:00:35 33° SE
Cosmos 2082 Rocket 4.0 20:54:51 10° WSW 20:59:56 32° NW 21:05:03 10° N
Cosmos 1606 Rocket 3.8 21:03:17 41° SE 21:04:03 47° E 21:08:11 10° NNE
Meteor 2-10 4.4 21:01:22 10° N 21:07:01 57° ENE 21:09:14 35° SE
CZ-4B R/B 2.6 21:09:42 54° SSW 21:10:15 66° WSW 21:13:41 10° NNW
USA 186 3.6 21:11:04 17° WSW 21:11:42 19° W 21:13:45 10° NW
Cosmos 1726 Rocket 3.9 21:12:35 39° E 21:12:35 39° E 21:16:20 10° NNE
Okean O Rocket 3.1 21:11:15 16° SSW 21:13:55 29° W 21:17:42 10° NW
Cosmos 540 Rocket 3.9 21:13:17 39° SE 21:13:59 41° ESE 21:18:48 10° NE
Cosmos 1072 Rocket 4.4 21:11:32 28° S 21:15:05 79° E 21:21:26 10° N
Cosmos 1805 2.8 21:19:14 10° N 21:22:21 77° NW 21:22:21 77° NW
DELTA 2 R/B (1) 3.8 21:17:47 10° W 21:23:08 50° S 21:24:09 44° SSE
Cosmos 2278 3.7 21:18:33 10° NNW 21:24:16 75° WSW 21:26:23 40° S
CZ-2C R/B 3.0 21:27:13 45° NNW 21:27:13 45° NNW 21:29:17 10° NNW
Meteor 1-5 Rocket 4.2 21:21:18 10° N 21:27:06 89° ENE 21:29:21 40° S
SL-16 R/B 2.6 21:23:13 10° NNW 21:28:43 54° WSW 21:30:55 34° SSW
Okean 1-7 Rocket 3.5 21:25:13 10° N 21:29:43 90° E 21:30:35 58° S
Cosmos-2242 3.8 21:34:03 35° ENE 21:34:03 35° ENE 21:37:21 10° NNE
Geosat 4.1 21:30:01 10° NE 21:34:52 49° ESE 21:35:08 49° ESE
NOSS 3-4 (A) 3.8 21:28:18 10° NW 21:35:12 89° SW 21:38:39 38° SE
Cosmos 2034 Rocket 4.0 21:32:54 40° SSE 21:35:16 69° E 21:41:35 10° NNE
NOSS 3-4 (C) 3.8 21:28:56 10° NW 21:35:51 89° SW 21:39:18 38° SE
Ariane Rocket 3.5 21:38:06 35° SSW 21:39:52 51° W 21:44:49 10° NNW
USA 234 4.4 21:43:31 10° ENE 21:47:10 24° E 21:47:10 24° E
Nadezhda 4 Rocket 4.2 21:47:55 10° NNW 21:53:57 65° W 21:56:13 39° SSW
Helios 1B rocket 3.5 21:55:11 29° NE 21:55:11 29° NE 21:57:37 10° N
Cosmos 1763 Rocket 3.6 21:53:12 41° SSW 21:55:03 77° WNW 22:00:22 10° NNE
Okean 1 3.8 21:56:18 46° WNW 21:56:18 46° WNW 21:59:41 10° N
Cosmos 2333 Rocket 3.2 21:51:25 10° NW 21:56:36 36° WSW 21:58:17 30° SW
Cosmos 2221 4.4 21:59:07 19° ENE 21:59:07 19° ENE 22:01:09 10° NE
Cosmos 1707 4.4 21:59:51 20° NNE 21:59:51 20° NNE 22:00:52 10° NNE
Cosmos 1825 Rocket 4.0 21:54:37 10° NNW 21:58:51 52° W 21:59:17 49° WSW
Cosmos 1634 Rocket 4.1 21:57:45 49° SE 21:58:58 58° E 22:05:03 10° NNE
Cosmos 1536 3.7 21:56:27 10° N 21:59:12 38° NE 21:59:12 38° NE
Cosmos 1833 4.3 21:57:58 33° SW 22:00:35 74° WNW 22:06:14 10° NNE
Cosmos 2297 Rocket 4.1 22:01:44 15° E 22:01:44 15° E 22:03:54 10° ENE
Cosmos 1953 Rocket 3.5 22:00:38 10° N 22:04:56 79° W 22:04:56 79° W
Cosmos 44 3.8 22:00:35 10° NNW 22:05:55 57° NE 22:06:56 48° E
Cosmos 990 Rocket 3.8 22:01:07 10° NNW 22:06:18 82° WSW 22:06:54 69° S
Meteor 2-6 Rocket 4.5 22:08:15 51° ESE 22:08:58 54° E 22:14:46 10° NNE
Cosmos 2360 Rocket 2.7 22:04:55 10° NW 22:10:22 49° WSW 22:11:23 43° SW
USA 290 4.5 22:12:10 21° WNW 22:12:20 21° WNW 22:14:49 10° N
Cosmos 2322 4.4 22:06:57 10° NNW 22:12:22 43° ENE 22:13:46 36° E
Cosmos 2058 Rocket 3.0 22:14:25 78° N 22:14:25 78° N 22:18:29 10° N
ISS -1.8 22:11:18 10° NW 22:14:14 27° NNE 22:14:19 27° NNE
Cosmos 2026 Rocket 4.0 22:10:15 10° N 22:16:38 77° W 22:18:17 52° SSW
Helios 1A 3.3 22:19:02 10° N 22:22:30 56° NW 22:22:30 56° NW
Cosmos 2219 Rocket 2.3 22:18:15 10° NNW 22:23:50 62° WSW 22:24:29 57° SW
Cosmos 1975 4.3 22:23:08 10° N 22:25:24 27° NE 22:25:24 27° NE
Cosmos 841 Rocket 3.9 22:28:15 49° E 22:28:15 49° E 22:32:48 10° NNE
ARIANE 5 R/B 3.1 22:32:16 51° ENE 22:32:16 51° ENE 22:36:19 10° N
RESURS DK-1 3.4 22:29:22 10° NNW 22:32:35 39° NE 22:32:35 39° NE
ALOS 2 3.4 22:33:58 43° ENE 22:33:58 43° ENE 22:37:50 10° N
Cosmos 2322 Rocket 3.6 22:37:22 10° NW 22:41:53 25° WSW 22:42:34 24° WSW
Cosmos 1271 Rocket 4.3 22:46:13 29° N 22:46:13 29° N 22:48:02 10° N
Cosmos 372 Rocket 3.8 22:42:54 10° NNW 22:47:52 79° W 22:47:52 79° W
Lacrosse 4 Rocket 3.9 22:51:57 12° ENE 22:51:57 12° ENE 22:52:25 10° ENE
Spot 4 3.8 22:51:57 78° NNE 22:51:57 78° NNE 22:56:30 10° NNW
Meteor 2-9 Rocket 4.0 22:50:17 10° N 22:55:43 87° E 22:55:55 83° SE
PSLV R/B 4.2 22:52:40 10° NNE 22:55:59 49° NE 22:55:59 49° NE
CZ-2C R/B 3.7 22:58:57 31° E 22:59:48 33° ENE 23:04:26 10° N
Cosmos 2237 Rocket 3.2 22:55:30 10° NNW 23:00:49 39° ENE 23:02:17 33° E
Aureole 1 Rocket 4.4 22:56:07 10° NNW 23:01:56 51° WSW 23:02:46 48° SW
Cosmos 1980 4.4 22:59:36 10° NNW 23:05:02 45° ENE 23:06:13 40° E
Cosmos 2142 Rocket 4.4 23:05:17 68° SSW 23:06:10 85° W 23:12:26 10° N
ARGOS Delta rocket 3.9 23:01:13 10° N 23:06:26 87° WNW 23:06:31 86° WSW
Cosmos 2180 Rocket 4.3 23:06:37 69° SSW 23:07:28 87° W 23:13:50 10° N
Cosmos 1937 Rocket 3.4 23:04:28 10° NNW 23:09:26 82° NNE 23:09:26 82° NNE
Cosmos 2227 Rocket 3.6 23:11:04 24° E 23:11:04 24° E 23:14:57 10° NE
Meteor 2-4 Rocket 4.4 23:11:49 39° E 23:11:49 39° E 23:16:48 10° NNE
COSMOS 2428 2.6 23:06:22 10° NNW 23:12:04 78° WSW 23:12:10 77° SW
NOSS 0 Rocket 3.8 23:08:31 10° NNW 23:14:43 85° ENE 23:15:26 71° SE
Meteor 1-11 Rocket 3.5 23:09:52 10° N 23:15:33 83° E 23:15:45 81° ESE
Meteor 1-10 Rocket 4.2 23:17:23 76° SSW 23:17:52 86° W 23:23:51 10° N
MetOp-A 4.1 23:18:10 64° ENE 23:18:10 64° ENE 23:22:40 10° N
Cosmos 2263 Rocket 4.0 23:20:54 18° E 23:20:54 18° E 23:24:08 10° ENE
Cosmos 1812 Rocket 4.2 23:25:18 52° NW 23:25:18 52° NW 23:28:59 10° N
Cosmos 1238 Rocket 4.1 23:25:54 36° NE 23:25:54 36° NE 23:28:47 10° NNE
SeaSat 1 4.0 23:28:37 24° E 23:30:21 30° NE 23:34:36 10° N
USA 234 3.2 23:25:51 10° NE 23:32:25 88° NW 23:34:29 48° SW
Meteor 1-27 Rocket 3.6 23:32:34 79° SSE 23:32:53 83° E 23:38:40 10° NNE
Cosmos 2221 3.9 23:35:23 31° WNW 23:35:23 31° WNW 23:38:36 10° N
CZ-2C R/B 3.1 23:29:36 10° NNE 23:35:25 85° ESE 23:35:47 79° S
ACS3 Solar Sail 2.8 23:31:23 10° NNE 23:36:39 31° E 23:37:20 30° ESE
Meteor 2-20 Rocket 4.2 23:37:28 73° SE 23:37:45 75° E 23:43:27 10° NNE
BlueWalker 3 4.4 23:41:17 14° ENE 23:41:17 14° ENE 23:41:54 10° ENE
Cosmos 2297 Rocket 2.1 23:43:29 71° WSW 23:43:53 75° WNW 23:49:33 10° NNE
Meteor 2-20 4.5 23:46:32 60° WSW 23:47:18 66° W 23:53:22 10° N
Cosmos 1842 Rocket 4.2 23:53:33 49° NE 23:53:33 49° NE 23:57:06 10° NNE
Landsat 5 4.4 23:48:47 10° NNE 23:51:40 42° NE 23:51:40 42° NE
